This is the latest recevied weather packets stored in our database for station/object KF7SOJ. If no packets are shown the sender has not sent any weather packets the latest 10 day(s).
| Time | Temp. | Humidity | Pressure | Rain* | Wind** | Luminosity | Snow |
|---|---|---|---|---|---|---|---|
| 1777909802 | 10° C | 50% | 931.7 hPa | 0 mm | - | 184 W/m² | - |
| 1777909498 | 10° C | 51% | 931.7 hPa | 0 mm | - | 204 W/m² | - |
| 1777909196 | 10° C | 51% | 931.8 hPa | 0 mm | - | 225 W/m² | - |
| 1777908894 | 10° C | 50% | 931.7 hPa | 0 mm | - | 194 W/m² | - |
| 1777908591 | 9.44° C | 52% | 931.9 hPa | 0 mm | - | 168 W/m² | - |
| 1777908288 | 9.44° C | 51% | 931.8 hPa | 0 mm | - | 168 W/m² | - |
| 1777907984 | 9.44° C | 52% | 931.7 hPa | 0 mm | - | 143 W/m² | - |
| 1777907680 | 9.44° C | 53% | 931.8 hPa | 0 mm | - | 104 W/m² | - |
| 1777907375 | 9.44° C | 52% | 932 hPa | 0 mm | - | 98 W/m² | - |
| 1777907072 | 9.44° C | 53% | 932 hPa | 0 mm | - | 73 W/m² | - |
| 1777906770 | 9.44° C | 53% | 932 hPa | 0 mm | - | 80 W/m² | - |
| 1777906466 | 9.44° C | 53% | 932.1 hPa | 0 mm | - | 65 W/m² | - |
| 1777906163 | 9.44° C | 52% | 932 hPa | 0 mm | - | 62 W/m² | - |
| 1777905860 | 9.44° C | 51% | 931.9 hPa | 0 mm | - | 58 W/m² | - |
| 1777905556 | 9.44° C | 51% | 932 hPa | 0 mm | - | 66 W/m² | - |
| 1777905254 | 9.44° C | 53% | 932 hPa | 0 mm | - | 66 W/m² | - |
| 1777904950 | 9.44° C | 52% | 932 hPa | 0 mm | - | 106 W/m² | - |
| 1777904648 | 9.44° C | 52% | 932 hPa | 0 mm | - | 106 W/m² | - |
| 1777904345 | 9.44° C | 52% | 932 hPa | 0 mm | - | 107 W/m² | - |
| 1777904041 | 9.44° C | 51% | 932.1 hPa | 0 mm | - | 120 W/m² | - |
| 1777903738 | 9.44° C | 51% | 932 hPa | 0 mm | - | 115 W/m² | - |
| 1777903434 | 9.44° C | 51% | 932 hPa | 0 mm | - | 104 W/m² | - |
| 1777903131 | 8.89° C | 53% | 932.1 hPa | 0 mm | - | 100 W/m² | - |
| 1777902828 | 8.89° C | 53% | 932.1 hPa | 0 mm | - | 88 W/m² | - |
| 1777902525 | 8.89° C | 53% | 932.2 hPa | 0 mm | - | 83 W/m² | - |
* Rain latest hour (hover to see other rain measurements)
** Current wind speed in m/s (hover to see current wind gust speed)